STARLINK-32608, 62124

Orbit data source: Space-Track

STARLINK-32608, 62124 is a payload satellite owned by SpaceX/Seattle (US) in LEO that was launched on Wed, 27 Nov 2024 UTC via an FALCON 9 launch vehicle from the Air Force Eastern Test Range (AFETR). Payload-class satellites include a variety of spacecraft equipped with specific instruments for various scientific and technological missions. These include communications satellites like Starlink; space stations such as the ISS; scientific satellites like the Hubble; Earth observation satellites from companies like Planet Labs, Umbra, and HawkEye 360; GPS; miniature CubeSats for education and research; and military/defense satellites.

Loading next visibility...
Identifier
62124, 2024-222L
Orbit
LEO
Country
Flag of USUS
Related business
Manufacturer
SpaceX/Seattle
Mission
Operational Commercial Communications
Bus & Motor
STARLINK V2M, Unknown motor
Mass
730 kg wet, ~700 kg dry
Launch date (UTC)
2024-11-27 (2 years ago)
Launch vehicle
FALCON 9
Launch site
Air Force Eastern Test Range (AFETR)
Object type
Payload
Rocket body
Debris
Shape & HBR
Box + 2 Pan, 17.7 m
Radar Cross Section
33.884 m², Large (>1 m²)

Expand to show TLE details & history
Last TLE update: 11 hours ago

TLE from 11 hours ago
0 STARLINK-32608
1 62124U 24222L   26171.36726532  .00012305  00000-0  45580-3 0  9994
2 62124  42.9980 276.1905 0001361 254.3463 105.7238 15.27589211 88448
Epoch: 2026-06-20T08:48Z
TLE epoch observation values (Epoch: 2026-06-20T08:48:51.723Z)
Latitude
-0.00006°
Longitude
-124.60798°
Altitude
483.05 km
Speed
7.626 km/s
True Right ascension
18h 24m 45s
True Declination
0° 00' 00"
Sunlit
Object was in full shadow at epoch
Visualization orbit readout
Latitude
Unknown
Longitude
Unknown
Altitude
Unknown
Speed
Unknown
Apparent Right ascension
Unknown
Apparent Declination
Unknown
Sunlit
N/A
Visualization observer readout
Local Sidereal Time
07:13:07
Azimuth
Unknown
Elevation
Unknown
Doppler factor
Unknown
Orbital elements
Apogee altitude
485.901 km
Perigee altitude
484.033 km
Semi-major axis
6,863.104 km
Eccentricity
0.00014
Inclination
42.998°
RAAN
276.1905°
Arg. of periapsis
254.3463°
True anomaly
105.73881°
Mean anomaly
105.7238°
Eccentric anomaly
105.73131°
Mean motion
3.81735 °/min
Orbital period
94.31 mins
BSTAR
0.0004558
Loading maneuver chart data...
Computing Atmospheric mass density...
Loading historical data...
Loading historical data...
Loading historical data...
Loading historical data...
Loading historical data...
Loading historical data...
Loading historical data...

Documentation

Showing up to 5 results
|